Andover, NJ

6:02 AM EDT on August 18, 2017 (GMT -0400)
Andover

Weather History for K12N - May, 2013

Change the Weather History Date:

Friday, May 24, 2013

  Actual Average (KFWN) Record (KFWN)
Temperature  
Mean Temperature 52 °F -  
Max Temperature 63 °F 72 °F 93 °F (1964)
Min Temperature 43 °F 47 °F 29 °F (1963)
Degree Days  
Heating Degree Days 12    
Growing Degree Days 2 (Base 50)    
Moisture  
Dew Point 48 °F    
Average Humidity 86    
Maximum Humidity 97    
Minimum Humidity 73    
Precipitation  
Precipitation 0.78 in - - ()
Sea Level Pressure  
Sea Level Pressure 29.85 in    
Wind  
Wind Speed 4 mph (North)    
Max Wind Speed 13 mph    
Max Gust Speed 24 mph    
Averages and records for this station are not official NWS values.
T = Trace of Precipitation, MM = Missing Value Source: NWS Daily Summary

Daily Weather History Graph

Daily Weather History Graph

Search for Another Location

Airport or City:

Trip Planner

Search our weather history database for the weather conditions in past years. The results will help you decide how hot, cold, wet, or windy it might be!

Date:

Astronomy

May. 24, 2013 Rise Set
Actual Time 5:33 AM EDT 8:18 PM EDT
Civil Twilight 5:01 AM EDT 8:50 PM EDT
Nautical Twilight 4:20 AM EDT 9:31 PM EDT
Astronomical Twilight 3:34 AM EDT 10:17 PM EDT
Moon 7:57 PM EDT (5/24) 5:03 AM EDT (5/24)
Length of Visible Light 15h 49m
Length of Day
14h 45m
Full, 100% of the Moon is Illuminated
May 24
Full
May 25
Full
May 31
Last Quarter
Jun 8
New
Jun 16
First Quarter

Hourly Weather History & Observations

Time (EDT) Temp. Windchill Dew Point Humidity Pressure Visibility Wind Dir Wind Speed Gust Speed Precip Events Conditions
12:54 AM 62.1 °F - 60.1 °F 93% 29.73 in - Calm Calm - 0.31 in   Unknown
1:54 AM 62.1 °F - 60.1 °F 93% 29.72 in - Calm Calm - 0.01 in   Unknown
2:54 AM 62.1 °F - 60.1 °F 93% 29.70 in - Calm Calm - N/A   Unknown
3:54 AM 61.0 °F - 60.1 °F 97% 29.70 in - Calm Calm - N/A   Unknown
4:54 AM 62.1 °F - 60.1 °F 93% 29.71 in - Calm Calm - N/A   Unknown
5:54 AM 62.1 °F - 60.1 °F 93% 29.71 in - Calm Calm - N/A   Unknown
6:54 AM 62.1 °F - 60.1 °F 93% 29.73 in - Calm Calm - N/A   Unknown
7:54 AM 61.0 °F - 57.9 °F 90% 29.75 in - North 12.7 mph 24.2 mph N/A   Unknown
8:54 AM 53.1 °F - 48.9 °F 86% 29.82 in - NNW 4.6 mph - N/A   Unknown
9:54 AM 50.0 °F - 44.1 °F 80% 29.85 in - NNW 6.9 mph - N/A   Unknown
10:54 AM 48.9 °F - 44.1 °F 83% 29.87 in - Variable 5.8 mph - 0.01 in   Unknown
11:54 AM 48.0 °F - 43.0 °F 83% 29.87 in - North 10.4 mph - 0.05 in   Unknown
12:54 PM 48.0 °F - 44.1 °F 86% 29.89 in - North 6.9 mph - 0.05 in   Unknown
1:54 PM 48.0 °F - 44.1 °F 86% 29.89 in - North 8.1 mph - 0.04 in   Unknown
2:54 PM 48.0 °F - 43.0 °F 83% 29.90 in - Variable 5.8 mph - 0.03 in   Unknown
3:54 PM 48.0 °F - 44.1 °F 86% 29.91 in - NNW 8.1 mph 17.3 mph 0.05 in   Unknown
4:54 PM 46.9 °F - 41.0 °F 80% 29.92 in - Variable 5.8 mph 16.1 mph 0.01 in   Unknown
5:54 PM 46.0 °F 41.0 °F 39.0 °F 76% 29.93 in - North 10.4 mph 19.6 mph N/A   Unknown
6:54 PM 46.0 °F 41.4 °F 37.9 °F 73% 29.95 in - NNW 9.2 mph - N/A   Unknown
7:54 PM 46.0 °F 41.9 °F 37.9 °F 73% 29.97 in - NNW 8.1 mph 18.4 mph N/A   Unknown
8:54 PM 44.1 °F 39.5 °F 39.0 °F 82% 29.98 in - North 8.1 mph - 0.03 in   Unknown
9:54 PM 44.1 °F 39.5 °F 39.0 °F 82% 29.99 in - North 8.1 mph - 0.09 in   Unknown
10:54 PM 43.0 °F 37.2 °F 39.0 °F 86% 30.00 in - North 10.4 mph - 0.05 in   Unknown
11:54 PM 43.0 °F 38.8 °F 39.0 °F 86% 30.00 in - Variable 6.9 mph - 0.05 in   Unknown